Voltar ao catálogo

FENGYUN 1C DEB

AtivoSSO
NORAD 30648·DEBRIS·🇨🇳 China

Lançado May 10, 1999 de Taiyuan Satellite Launch Center

Loading…

Próximas Passagens (próximas 24 horas)

TLE

AtualizadoSource: Space-Track

Época: Sep 14, 2026, 13:25 UTC

1 30648U 99025APF 26257.55926547  .00004132  00000-0  10327-2 0  9996
2 30648  98.6440   4.2757 0030567  11.7950   1.1728 14.51801609 18657

Acompanhe FENGYUN 1C DEB em tempo real com AllMySat

Download on the App Store